Location: Baggettsville
(36.4767°N, 86.7303°W)
Time: 00:16:26
(UTC+00:00)

NOSS 3-3 (A) - Pass Details

Date: 29 October 2020
Orbit: 826 x 1387 km, 63.4° (Epoch: 22 November)

Event Time Altitude Azimuth Distance (km) Brightness Sun altitude
Rises 23:21:49 0° 199° (SSW) 3,359 7.3 -6.5°
Reaches altitude 10° 23:24:12 10° 196° (SSW) 2,452 6.5 -6.9°
Maximum altitude 23:29:43 61° 117° (ESE) 1,007 3.9 -8.0°
Drops below altitude 10° 23:35:51 10° 39° (NE) 2,714 5.9 -9.2°
Enters shadow 23:38:34 - 36° (NE) 3,737 6.6 -9.8°
